Location: Eisingen in Unterfranken
(49.7591°N, 9.8347°E)
Time: 00:20:00
(UTC+01:00)

BlueWalker 3 - Pass Details

Date: 02 December 2022
Orbit: 499 x 517 km, 53.2° (Epoch: 04 February)

Event Time Altitude Azimuth Distance (km) Brightness Sun altitude
Rises 17:00:39 0° 259° (W) 2,630 7.4 -6.2°
Reaches altitude 10° 17:02:52 10° 263° (W) 1,741 6.1 -6.5°
Maximum altitude 17:06:47 63° 345° (NNW) 576 2.2 -7.0°
Drops below altitude 10° 17:10:40 10° 67° (ENE) 1,732 4.0 -7.6°
Enters shadow 17:10:43 10° 68° (ENE) 1,749 4.0 -7.6°
